Location: Praha
(50.0830°N, 14.4670°E)
Time: 14:22:49
(UTC+02:00)

LACMA ENOCH - Visible Passes

Search period start: 20 May 2019 00:00
Search period end: 30 May 2019 00:00
Orbit: 572 x 595 km, 97.7° (Epoch: 19 May)

Date Brightness Start Highest point End Pass type
(mag) Time Alt. Az. Time Alt. Az. Time Alt. Az.
20 May ? 21:28:20 10° ESE 21:31:12 19° ENE 21:34:04 10° NNE visible
20 May ? 23:03:45 21° S 23:06:14 53° W 23:10:15 10° NNW visible
21 May ? 21:33:59 10° ESE 21:37:03 21° ENE 21:40:08 10° NNE visible
21 May ? 23:09:41 20° SSW 23:12:11 46° W 23:16:08 10° NNW visible
22 May ? 21:39:39 10° ESE 21:42:55 23° ENE 21:46:11 10° N visible
22 May ? 23:15:36 19° SSW 23:18:07 40° W 23:21:58 10° NNW visible
23 May ? 21:45:21 10° ESE 21:48:46 26° ENE 21:52:12 10° N visible
23 May ? 23:21:31 18° SSW 23:24:03 35° W 23:27:48 10° NNW visible
24 May ? 21:51:05 10° SE 21:54:38 29° ENE 21:58:11 10° N visible
24 May ? 23:27:26 16° SSW 23:29:59 30° W 23:33:38 10° NNW visible
25 May ? 21:56:56 11° SE 22:00:28 33° ENE 22:04:10 10° N visible
25 May ? 23:33:20 15° SW 23:35:55 27° W 23:39:25 10° NW visible
26 May ? 22:02:51 12° SE 22:06:20 38° ENE 22:10:08 10° N visible
26 May ? 23:39:14 13° SW 23:41:51 24° W 23:45:11 10° NW visible
27 May ? 22:08:44 12° SE 22:12:11 43° ENE 22:16:05 10° N visible
27 May ? 23:45:08 12° SW 23:47:47 21° W 23:50:55 10° NW visible
28 May ? 22:14:38 13° SE 22:18:03 49° ENE 22:22:00 10° N visible
28 May ? 23:51:02 11° SW 23:53:42 18° W 23:56:37 10° NW visible
29 May ? 22:20:32 14° SSE 22:23:54 56° ENE 22:27:55 10° N visible
